Regional Weather Roundup
Issued by NWS

Home | Current Version | Previous Version | Graphics & Text | Print | Product List | Glossary On
Versions: 1 2 3 4 5 6 7 8 9 10 11 12 13 14 15 16 17 18 19 20 21 22 23 24 25 26 27 28 29 30 31 32 33 34 35 36 37 38 39 40 41 42 43 44 45 46 47 48 49 50
000
ASUS43 KMKX 271207
RWRWI

WISCONSIN REGIONAL WEATHER ROUNDUP
NATIONAL WEATHER SERVICE MILWAUKEE/SULLIVAN WI
700 AM CDT WED MAY 27 2015

NOTE: "FAIR" INDICATES FEW OR NO CLOUDS BELOW 12,000 FEET WITH NO
SIGNIFICANT WEATHER AND/OR OBSTRUCTIONS TO VISIBILITY.

WIZ001-002-006>008-014>016-023>028-271300-
NORTHWEST WISCONSIN

CITY           SKY/WX    TMP DP  RH WIND       PRES   REMARKS
SUPERIOR ARPT  PTSUNNY   52  50  93 SW8       29.81R
ASHLAND        CLOUDY    55  53  93 SW9       29.82R
6HR MIN TEMP:  52; 6HR MAX TEMP:  55; 6HR PCP:  0.04;

HAYWARD        CLOUDY    53  51  93 SW3       29.86R
6HR MIN TEMP:  52; 6HR MAX TEMP:  54; 6HR PCP:  0.01;

SIREN          PTSUNNY   52  52  98 CALM      29.86R
CUMBERLAND     CLOUDY    52  50  93 SW5       29.87S
RICE LAKE      CLOUDY    54  52  94 CALM      29.89R
CHETEK         CLOUDY    53  53 100 CALM      29.88R
LADYSMITH      CLOUDY    55  54  97 W6        29.88R
EAU CLAIRE     CLOUDY    56  54  93 SW6       29.89R
MENOMONIE      CLOUDY    56  56  99 SW3       29.89R FOG
NEW RICHMOND   PTSUNNY   54  54 100 SW5       29.89R FOG
OSCEOLA        PTSUNNY   52  52 100 SE3       29.91R
$$

WIZ003>005-009-010-017-018-271300-
NORTH CENTRAL WISCONSIN

CITY           SKY/WX    TMP DP  RH WIND       PRES   REMARKS
MANITOWISH WTR DRIZZLE   53  53 100 W5        29.82R
ARBOR VITAE    RAIN      55  53  94 W3        29.82R
WOODRUFF       RAIN      55  53  94 W3        29.82R
RHINELANDER    LGT RAIN  53  52  96 W6        29.83R FOG
6HR MIN TEMP:  53; 6HR MAX TEMP:  57; 6HR PCP:  0.55;

EAGLE RIVER    LGT RAIN  53  53 100 W3        29.80R
LAND O LAKES   LGT RAIN  54  53  97 NW3       29.81R
PHILLIPS       CLOUDY    52  52 100 CALM      29.84R
TOMAHAWK       LGT RAIN  52  51  96 W5        29.84R
MEDFORD        DRIZZLE   53  52  97 W7        29.86R
MERRILL        CLOUDY    54  54 100 NW5       29.84R
$$

WIZ029-030-035-036-043>047-271300-
CENTRAL WISCONSIN

CITY           SKY/WX    TMP DP  RH WIND       PRES   REMARKS
WAUSAU         LGT RAIN  55  53  93 NW7       29.83R
6HR MIN TEMP:  54; 6HR MAX TEMP:  59; 6HR PCP:  0.30;

MOSINEE        NOT AVBL
MARSHFIELD     CLOUDY    57  53  86 W10       29.86R
6HR MIN TEMP:  56; 6HR MAX TEMP:  58; 6HR PCP: TRACE;

STEVENS POINT  CLOUDY    55  53  94 W7        29.85R
WAUPACA        CLOUDY    61  58  90 W12G17    29.83R
WAUTOMA        CLOUDY    61  59  94 W13       29.85R
WISC RAPIDS    CLOUDY    57  54  89 NW8       29.88R
6HR MIN TEMP:  57; 6HR MAX TEMP:  60; 6HR PCP:  0.02;

CAMP DOUGLAS   NOT AVBL
$$

WIZ011>013-019>022-031-037>040-048>050-271300-
NORTHEAST WISCONSIN

CITY           SKY/WX    TMP DP  RH WIND       PRES   REMARKS
ANTIGO         DRIZZLE   53  53 100 NW9       29.81R
SHAWANO        CLOUDY    59  56  90 W6G16     29.79R
OCONTO         CLOUDY    58  58 100 W15       29.75R
STURGEON BAY   CLOUDY    61  55  82 SW10      29.78R
6HR MIN TEMP:  61; 6HR MAX TEMP:  63;

GREEN BAY      CLOUDY    61  56  83 W15       29.79R
6HR MIN TEMP:  61; 6HR MAX TEMP:  65; 6HR PCP: TRACE;

MANITOWOC      NOT AVBL
APPLETON       NOT AVBL
CLINTONVILLE   CLOUDY    59  55  88 W9        29.80R
OSHKOSH        CLOUDY    62  56  80 W7        29.83R
6HR MIN TEMP:  62; 6HR MAX TEMP:  63;

$$

WIZ032>034-041-042-053>061-271300-
SOUTHWEST WISCONSIN

CITY           SKY/WX    TMP DP  RH WIND       PRES   REMARKS
LA CROSSE      CLOUDY    61  57  87 W6        29.90R
6HR MIN TEMP:  60; 6HR MAX TEMP:  62; 6HR PCP:  0.02;

SPARTA         CLOUDY    58  56  94 W6        29.90R
VIROQUA        CLOUDY    57  57 100 W7        29.90R
BOSCOBEL       CLOUDY    61  58  90 SW6       29.90R
6HR MIN TEMP:  59; 6HR MAX TEMP:  61; 6HR PCP: TRACE;

PRAIRIE DU CHI PTSUNNY   60  56  87 W6        29.91R
PLATTEVILLE    CLOUDY    59  58  97 W7        29.91R
$$

WIZ056-057-062-063-064-067-068-271300-
SOUTH CENTRAL WISCONSIN

CITY           SKY/WX    TMP DP  RH WIND       PRES   REMARKS
REEDSBURG      CLOUDY    59  58  96 W9        29.87R FOG
BARABOO/DELLS  RAIN      59  56  89 W7        29.87R
LONE ROCK      CLOUDY    61  57  87 W7        29.89R
MINERAL POINT  CLOUDY    61  59  94 W8        29.90R
MADISON        PTSUNNY   61  57  87 W3        29.88R
6HR MIN TEMP:  60; 6HR MAX TEMP:  62; 6HR PCP: TRACE;

MIDDLETON      CLOUDY    61  60  94 W7        29.88R
WATERTOWN      CLOUDY   N/A N/A N/A SW3       29.87R
MONROE         CLOUDY    61  59  94 W13       29.90R
JANESVILLE     NOT AVBL
$$

WIZ051-052-058>065-066-070>072-271300-
SOUTHEAST WISCONSIN

CITY           SKY/WX    TMP DP  RH WIND       PRES   REMARKS
MILWAUKEE      PTSUNNY   63  58  83 W10       29.87R
6HR MIN TEMP:  62; 6HR MAX TEMP:  66; 6HR PCP:  0.01;

WAUKESHA       CLOUDY    59  57  94 SW12      29.89R
MILWAUKEE/TIMM CLOUDY    61  57  88 SW7       29.88R
RACINE         MOSUNNY   66  60  81 SW8       29.89R
6HR MIN TEMP:  63; 6HR MAX TEMP:  66; 6HR PCP: TRACE;

BURLINGTON     CLOUDY    60  58  93 SW7       29.88R
KENOSHA        PTSUNNY   65  61  87 SW9       29.88R
6HR MIN TEMP:  63; 6HR MAX TEMP:  65; 6HR PCP: TRACE;

FOND DU LAC    PTSUNNY   62  57  83 SW9       29.84R
6HR MIN TEMP:  61; 6HR MAX TEMP:  63;

SHEBOYGAN      MOSUNNY   63  57  81 SW15      29.82R
6HR MIN TEMP:  60; 6HR MAX TEMP:  63;

WEST BEND      CLOUDY    61  55  82 SW9       29.85R
JUNEAU         CLOUDY    59  57  94 SW10      29.87R
$$

LSZ147-162-271300-
LAKE SUPERIOR

STATION/POSITION TIME  TEMP    WIND        PRES    WAVE
                       AIR SEA DIR/SP/G            HT/PER
                 (UTC) (F)     (DEG/KT/KT) (MB)    (FT/S)
W MID LAKE BUOY  1050   41 37  230/ 10/ 12 1080.0R   0
DEVILS ISLAND    1100   50     230/ 15/ 16 1083.0R
PORT WING        1100   54     200/  5/  7   N/A
SAXON HARBOR     1100   53     190/  3/  8   N/A
$$

LMZ867-665-643>646-271300-
LAKE MICHIGAN

STATION/POSITION TIME  TEMP    WIND        PRES    WAVE
                       AIR SEA DIR/SP/G            HT/PER
                 (UTC) (F)     (DEG/KT/KT) (MB)    (FT/S)
CHAMBERS ISLAND  1100   57     230/  5/ 10 1064.0R
N MID LAKE BUOY  1050   43 37  210/ 17/ 19 1049.0R   5/ 6
NORTHPORT PIER   1100   54     290/  6/ 11 1061.0R
SISTER BAY       1103   54     310/  8/  9   N/A
ALGOMA LAKESHORE 1138          280/ 10/ 19   N/A
KEWAUNEE LAKESHO 1100   63     250/ 12/ 17 1069.0R
SHEBOYGAN LAKESH 1100   62     230/ 13/ 15   N/A
PORT WASHINGTON  1100   62     250/  6/ 11   N/A
ATWATER BUOY     1100   61 45  230/ 10/ 12   N/A
MILWAUKEE LAKESH 1100   63     240/  9/ 12   N/A
S MID LAKE BUOY  1050   45 38  200/ 12/ 12   N/A     1/ 4
KENOSHA   LAKESH 1100   65     240/  9/ 17   N/A
$$

TC  - TEMPERATURE IN CELSIUS
VSB - VISIBILITY IN STATUTE MILES
WCI - WIND CHILL INDEX
HX  - HEAT INDEX



USA.gov is the U.S. government's official web portal to all federal, state and local government web resources and services.